Location: Dieppe
(49.9230°N, 1.0775°E)
Time: 21:39:53
(UTC+02:00)

ISS - Pass Details

Date: 27 May 2018
Orbit: 402 x 408 km, 51.6° (Epoch: 26 June)

Event Time Altitude Azimuth Distance (km) Brightness Sun altitude
Rises 23:15:36 0° 271° (W) 2,322 0.6 -10.6°
Reaches altitude 10° 23:17:42 10° 275° (W) 1,462 -0.4 -10.8°
Maximum altitude 23:20:57 62° 357° (N) 460 -3.3 -11.1°
Drops below altitude 10° 23:24:12 10° 80° (E) 1,460 -1.3 -11.4°
Enters shadow 23:25:53 - 83° (E) 2,149 -0.4 -11.6°
